COSMOS 2527 (756)

Last updated on Mon Sep 21 2026 00:03:22 GMT+0000 (Coordinated Universal Time)

1 43508U 18053A 26263.34479113 .00000039 00000+0 00000+0 0 9998 2 43508 65.6358 70.7361 0007307 213.1523 146.8368 2.13102222 64307
UTC large
Height (km)
Speed (km/s)
/
Latitude / Longitude
Inclination (degrees)
Orbital Period (minutes)
Azimuth
Elevation
Range (km)
Doppler Factor

Next 0 passes for location: London (51.5072 / 0.1276)

No passes found over London.
COSMOS 2527 (756)